| time (UTC) | temp C | wind direction | speed KPH | gust KPH | rain 1hr cm | rain 24hr cm | rain mn cm | humidity % | barometer mb |
| 20260503211435 | 16 | 214 | 8.0 | 12.9 | 0.00 | 0.00 | 0.00 | 42 | 1009.2 |
| 20260503210931 | 16 | 236 | 9.7 | 14.5 | 0.00 | 0.00 | 0.00 | 39 | 1009.1 |
| 20260503210428 | 16 | 239 | 4.8 | 8.0 | 0.00 | 0.00 | 0.00 | 40 | 1009.2 |
| 20260503205928 | 16 | 230 | 4.8 | 9.7 | 0.00 | 0.00 | 0.00 | 40 | 1009.5 |
| 20260503205425 | 15 | 225 | 3.2 | 3.2 | 0.00 | 0.00 | 0.00 | 42 | 1009.5 |
| 20260503204921 | 15 | 210 | 1.6 | 1.6 | 0.00 | 0.00 | 0.00 | 42 | 1009.4 |
| 20260503204419 | 15 | 234 | 4.8 | 9.7 | 0.00 | 0.00 | 0.00 | 42 | 1009.4 |
| 20260503203916 | 15 | 201 | 6.4 | 8.0 | 0.00 | 0.00 | 0.00 | 42 | 1009.6 |
| 20260503203413 | 16 | 166 | 11.3 | 16.1 | 0.00 | 0.00 | 0.00 | 41 | 1009.4 |
| 20260503202910 | 16 | 230 | 4.8 | 8.0 | 0.00 | 0.00 | 0.00 | 42 | 1009.7 |
| 20260503202408 | 16 | 181 | 9.7 | 14.5 | 0.00 | 0.00 | 0.00 | 40 | 1009.5 |
| 20260503201906 | 16 | 196 | 3.2 | 3.2 | 0.00 | 0.00 | 0.00 | 41 | 1009.5 |
| 20260503201403 | 16 | 316 | 12.9 | 16.1 | 0.00 | 0.00 | 0.00 | 39 | 1009.4 |
| 20260503200900 | 17 | 291 | 3.2 | 4.8 | 0.00 | 0.00 | 0.00 | 38 | 1009.4 |
| 20260503200356 | 17 | 212 | 11.3 | 25.7 | 0.00 | 0.00 | 0.00 | 37 | 1009.6 |
| 20260503195854 | 16 | 268 | 6.4 | 9.7 | 0.00 | 0.00 | 0.00 | 38 | 1009.7 |
| 20260503195350 | 16 | 219 | 6.4 | 9.7 | 0.00 | 0.00 | 0.00 | 40 | 1009.7 |
| 20260503194847 | 16 | 220 | 6.4 | 8.0 | 0.00 | 0.00 | 0.00 | 38 | 1009.6 |
| 20260503194343 | 16 | 193 | 4.8 | 8.0 | 0.00 | 0.00 | 0.00 | 40 | 1009.8 |
| 20260503193839 | 15 | 219 | 9.7 | 14.5 | 0.00 | 0.00 | 0.00 | 40 | 1010.1 |
| 20260503193335 | 16 | 228 | 11.3 | 16.1 | 0.00 | 0.00 | 0.00 | 40 | 1010.1 |
| 20260503192831 | 16 | 224 | 4.8 | 4.8 | 0.00 | 0.00 | 0.00 | 40 | 1010.1 |
| 20260503192327 | 16 | 209 | 1.6 | 3.2 | 0.00 | 0.00 | 0.00 | 40 | 1010.3 |
| 20260503191823 | 16 | 222 | 8.0 | 9.7 | 0.00 | 0.00 | 0.00 | 40 | 1010.3 |
| 20260503191321 | 16 | 222 | 20.9 | 24.1 | 0.00 | 0.00 | 0.00 | 38 | 1010.3 |
| 20260503190818 | 17 | 207 | 3.2 | 4.8 | 0.00 | 0.00 | 0.00 | 40 | 1010.5 |
| 20260503190315 | 16 | 197 | 4.8 | 8.0 | 0.00 | 0.00 | 0.00 | 42 | 1010.5 |
| 20260503185812 | 16 | 317 | 4.8 | 8.0 | 0.00 | 0.00 | 0.00 | 41 | 1010.7 |
| 20260503185308 | 17 | 285 | 11.3 | 14.5 | 0.00 | 0.00 | 0.00 | 38 | 1010.8 |
| 20260503184807 | 16 | 111 | 6.4 | 8.0 | 0.00 | 0.00 | 0.00 | 40 | 1010.6 |
| 20260503184304 | 16 | 262 | 4.8 | 8.0 | 0.00 | 0.00 | 0.00 | 41 | 1011.1 |
| 20260503183800 | 17 | 239 | 3.2 | 3.2 | 0.00 | 0.00 | 0.00 | 39 | 1010.7 |
| 20260503183258 | 17 | 221 | 8.0 | 12.9 | 0.00 | 0.00 | 0.00 | 39 | 1010.9 |
| 20260503182755 | 17 | 199 | 12.9 | 20.9 | 0.00 | 0.00 | 0.00 | 38 | 1011.0 |
| 20260503182254 | 16 | 193 | 9.7 | 11.3 | 0.00 | 0.00 | 0.00 | 41 | 1010.9 |
| 20260503181750 | 16 | 232 | 8.0 | 12.9 | 0.00 | 0.00 | 0.00 | 42 | 1011.0 |
| 20260503181247 | 16 | 226 | 22.5 | 29.0 | 0.00 | 0.00 | 0.00 | 38 | 1011.2 |
| 20260503180743 | 16 | 226 | 4.8 | 9.7 | 0.00 | 0.00 | 0.00 | 41 | 1011.1 |
| 20260503180242 | 16 | 217 | 6.4 | 11.3 | 0.00 | 0.00 | 0.00 | 41 | 1011.2 |
| 20260503175738 | 17 | 222 | 3.2 | 3.2 | 0.00 | 0.00 | 0.00 | 42 | 1010.9 |
| 20260503175236 | 17 | 114 | 1.6 | 3.2 | 0.00 | 0.00 | 0.00 | 38 | 1011.4 |
| 20260503174732 | 16 | 236 | 8.0 | 9.7 | 0.00 | 0.00 | 0.00 | 42 | 1011.3 |
| 20260503174230 | 16 | 205 | 14.5 | 17.7 | 0.00 | 0.00 | 0.00 | 41 | 1011.6 |
| 20260503173730 | 16 | 168 | 4.8 | 14.5 | 0.00 | 0.00 | 0.00 | 42 | 1011.8 |
| 20260503173226 | 16 | 183 | 8.0 | 11.3 | 0.00 | 0.00 | 0.00 | 42 | 1011.4 |
| 20260503172724 | 16 | 272 | 4.8 | 8.0 | 0.00 | 0.00 | 0.00 | 46 | 1011.6 |
| 20260503172220 | 16 | 211 | 11.3 | 17.7 | 0.00 | 0.00 | 0.00 | 42 | 1011.8 |
| 20260503171717 | 16 | 191 | 1.6 | 3.2 | 0.00 | 0.00 | 0.00 | 44 | 1011.8 |
| 20260503171214 | 16 | 245 | 4.8 | 9.7 | 0.00 | 0.00 | 0.00 | 45 | 1011.8 |
| 20260503170711 | 16 | 225 | 8.0 | 12.9 | 0.00 | 0.00 | 0.00 | 43 | 1011.6 |
| 20260503170208 | 16 | 226 | 3.2 | 3.2 | 0.00 | 0.00 | 0.00 | 44 | 1012.1 |
| 20260503160130 | 15 | 230 | 4.8 | 11.3 | 0.00 | 0.00 | 0.00 | 46 | 1012.6 |
| 20260503150600 | 12 | 231 | 12.9 | 16.1 | 0.00 | 0.00 | 0.00 | 46 | 1013.1 |
| 20260503130949 | 7 | 212 | 9.7 | 12.9 | 0.00 | 0.00 | 0.00 | 55 | 1013.9 |
| 20260503130447 | 7 | 176 | 3.2 | 3.2 | 0.00 | 0.00 | 0.00 | 60 | 1013.8 |
| 20260503110343 | 2 | 215 | 0.0 | 1.6 | 0.00 | 0.00 | 0.00 | 80 | 1014.2 |
| 20260503090235 | 2 | 221 | 3.2 | 4.8 | 0.00 | 0.00 | 0.00 | 86 | 1013.6 |
| 20260503081208 | 2 | 213 | 1.6 | 1.6 | 0.00 | 0.00 | 0.00 | 87 | 1013.7 |
| 20260503080703 | 2 | 203 | 1.6 | 3.2 | 0.00 | 0.00 | 0.00 | 88 | 1013.6 |
| 20260503080200 | 2 | 213 | 1.6 | 1.6 | 0.00 | 0.00 | 0.00 | 87 | 1013.6 |
| 20260503072637 | 2 | 216 | 0.0 | 0.0 | 0.00 | 0.00 | 0.00 | 87 | 1013.5 |
| 20260503072134 | 2 | 216 | 0.0 | 0.0 | 0.00 | 0.00 | 0.00 | 87 | 1013.5 |
| 20260503071631 | 2 | 230 | 4.8 | 4.8 | 0.00 | 0.00 | 0.00 | 87 | 1013.5 |
| 20260503071128 | 2 | 203 | 3.2 | 3.2 | 0.00 | 0.00 | 0.00 | 87 | 1013.3 |
| 20260503070625 | 2 | 214 | 0.0 | 1.6 | 0.00 | 0.00 | 0.00 | 88 | 1013.5 |
| 20260503070123 | 2 | 214 | 0.0 | 0.0 | 0.00 | 0.00 | 0.00 | 87 | 1013.6 |
| 20260503055043 | 2 | 203 | 1.6 | 1.6 | 0.00 | 0.00 | 0.00 | 89 | 1013.6 |
| 20260503054539 | 2 | 204 | 1.6 | 1.6 | 0.00 | 0.00 | 0.00 | 89 | 1013.7 |
| 20260503054037 | 2 | 204 | 1.6 | 1.6 | 0.00 | 0.00 | 0.00 | 89 | 1013.7 |
| 20260503053535 | 2 | 209 | 0.0 | 1.6 | 0.00 | 0.00 | 0.00 | 89 | 1013.8 |
| 20260503053032 | 2 | 209 | 0.0 | 1.6 | 0.00 | 0.00 | 0.00 | 89 | 1013.6 |
| 20260503052529 | 2 | 209 | 0.0 | 1.6 | 0.00 | 0.00 | 0.00 | 89 | 1013.7 |
| 20260503052025 | 2 | 211 | 1.6 | 1.6 | 0.00 | 0.00 | 0.00 | 89 | 1013.6 |
| 20260503051521 | 2 | 211 | 1.6 | 1.6 | 0.00 | 0.00 | 0.00 | 89 | 1013.8 |
| 20260503051019 | 2 | 212 | 0.0 | 0.0 | 0.00 | 0.00 | 0.00 | 89 | 1013.7 |
| 20260503050514 | 2 | 211 | 1.6 | 1.6 | 0.00 | 0.00 | 0.00 | 88 | 1013.7 |
| 20260503050012 | 2 | 211 | 1.6 | 1.6 | 0.00 | 0.00 | 0.00 | 87 | 1013.7 |
| 20260503045509 | 2 | 212 | 0.0 | 1.6 | 0.00 | 0.00 | 0.00 | 87 | 1013.7 |
| 20260503045006 | 3 | 211 | 0.0 | 1.6 | 0.00 | 0.00 | 0.00 | 86 | 1013.8 |
| 20260503044502 | 3 | 211 | 1.6 | 1.6 | 0.00 | 0.00 | 0.00 | 86 | 1013.7 |
| 20260503044000 | 3 | 211 | 0.0 | 1.6 | 0.00 | 0.00 | 0.00 | 86 | 1013.7 |
| 20260503043456 | 3 | 211 | 1.6 | 1.6 | 0.00 | 0.00 | 0.00 | 85 | 1013.8 |
| 20260503042953 | 3 | 211 | 0.0 | 1.6 | 0.00 | 0.00 | 0.00 | 85 | 1013.7 |
| 20260503042450 | 3 | 211 | 1.6 | 1.6 | 0.00 | 0.00 | 0.00 | 85 | 1013.6 |
| 20260503041946 | 3 | 212 | 0.0 | 1.6 | 0.00 | 0.00 | 0.00 | 84 | 1013.7 |
| 20260503041443 | 3 | 212 | 0.0 | 0.0 | 0.00 | 0.00 | 0.00 | 83 | 1013.8 |
| 20260503040941 | 3 | 215 | 1.6 | 1.6 | 0.00 | 0.00 | 0.00 | 83 | 1013.7 |
| 20260503040438 | 4 | 207 | 0.0 | 0.0 | 0.00 | 0.00 | 0.00 | 82 | 1013.5 |
| 20260503035935 | 4 | 209 | 1.6 | 1.6 | 0.00 | 0.79 | 0.79 | 80 | 1013.7 |
| 20260503035431 | 4 | 217 | 1.6 | 1.6 | 0.00 | 0.79 | 0.79 | 80 | 1013.8 |
| 20260503034929 | 5 | 217 | 0.0 | 0.0 | 0.00 | 0.79 | 0.79 | 79 | 1013.9 |
| 20260503034427 | 5 | 205 | 0.0 | 1.6 | 0.00 | 0.79 | 0.79 | 78 | 1013.6 |
| 20260503033923 | 5 | 217 | 3.2 | 3.2 | 0.00 | 0.79 | 0.79 | 77 | 1013.8 |
| 20260503033421 | 5 | 205 | 1.6 | 1.6 | 0.00 | 0.79 | 0.79 | 77 | 1013.9 |
| 20260503032919 | 5 | 233 | 1.6 | 1.6 | 0.00 | 0.79 | 0.79 | 78 | 1013.6 |
| 20260503032417 | 5 | 220 | 1.6 | 1.6 | 0.00 | 0.79 | 0.79 | 77 | 1014.0 |
| 20260503031914 | 5 | 220 | 1.6 | 3.2 | 0.00 | 0.79 | 0.79 | 77 | 1013.6 |
| 20260503031412 | 5 | 234 | 3.2 | 3.2 | 0.00 | 0.79 | 0.79 | 77 | 1013.7 |
| 20260503030908 | 5 | 212 | 1.6 | 1.6 | 0.00 | 0.79 | 0.79 | 77 | 1013.8 |
| 20260503030405 | 5 | 214 | 0.0 | 0.0 | 0.00 | 0.79 | 0.79 | 78 | 1013.9 |
| 20260503025901 | 5 | 213 | 0.0 | 1.6 | 0.00 | 0.79 | 0.79 | 78 | 1013.7 |
| 20260503025359 | 5 | 214 | 0.0 | 0.0 | 0.00 | 0.79 | 0.79 | 78 | 1013.8 |
| 20260503024856 | 5 | 207 | 0.0 | 0.0 | 0.00 | 0.79 | 0.79 | 77 | 1014.0 |
| 20260503024353 | 5 | 207 | 0.0 | 0.0 | 0.00 | 0.79 | 0.79 | 78 | 1014.0 |
| 20260503023850 | 5 | 200 | 0.0 | 1.6 | 0.00 | 0.79 | 0.79 | 77 | 1014.0 |
| 20260503023347 | 5 | 209 | 0.0 | 1.6 | 0.00 | 0.79 | 0.79 | 78 | 1014.0 |
| 20260503022844 | 5 | 209 | 0.0 | 0.0 | 0.00 | 0.79 | 0.79 | 77 | 1014.0 |
| 20260503022344 | 5 | 209 | 0.0 | 1.6 | 0.00 | 0.79 | 0.79 | 76 | 1013.9 |
| 20260503021840 | 5 | 210 | 0.0 | 1.6 | 0.00 | 0.79 | 0.79 | 76 | 1014.2 |
| 20260503021337 | 5 | 213 | 0.0 | 1.6 | 0.00 | 0.79 | 0.79 | 76 | 1013.9 |
| 20260503020834 | 5 | 203 | 1.6 | 1.6 | 0.00 | 0.79 | 0.79 | 79 | 1013.7 |
| 20260503020332 | 5 | 217 | 0.0 | 0.0 | 0.00 | 0.79 | 0.79 | 79 | 1013.9 |
| 20260503015828 | 5 | 217 | 0.0 | 0.0 | 0.00 | 0.79 | 0.79 | 80 | 1014.1 |
| 20260503015325 | 5 | 217 | 0.0 | 0.0 | 0.00 | 0.79 | 0.79 | 82 | 1014.1 |
| 20260503014821 | 5 | 217 | 0.0 | 0.0 | 0.00 | 0.79 | 0.79 | 83 | 1013.9 |
| 20260503014319 | 5 | 217 | 0.0 | 0.0 | 0.00 | 0.79 | 0.79 | 82 | 1013.8 |
| 20260503013816 | 5 | 218 | 0.0 | 0.0 | 0.00 | 0.79 | 0.79 | 80 | 1013.9 |
| 20260503013313 | 5 | 218 | 0.0 | 0.0 | 0.00 | 0.79 | 0.79 | 79 | 1013.9 |
| 20260503012810 | 5 | 217 | 0.0 | 0.0 | 0.00 | 0.79 | 0.79 | 80 | 1013.9 |
| 20260503012308 | 5 | 218 | 0.0 | 0.0 | 0.00 | 0.79 | 0.79 | 79 | 1013.8 |
| 20260503011804 | 5 | 218 | 0.0 | 0.0 | 0.00 | 0.79 | 0.79 | 79 | 1013.8 |
| 20260503011301 | 5 | 217 | 0.0 | 0.0 | 0.00 | 0.79 | 0.79 | 79 | 1013.7 |
| 20260503010757 | 5 | 218 | 0.0 | 0.0 | 0.00 | 0.79 | 0.79 | 79 | 1013.7 |
| 20260503010255 | 5 | 218 | 0.0 | 0.0 | 0.00 | 0.79 | 0.79 | 78 | 1013.6 |
| 20260503005752 | 5 | 218 | 0.0 | 0.0 | 0.00 | 0.79 | 0.79 | 77 | 1013.4 |
| 20260503005249 | 5 | 218 | 0.0 | 0.0 | 0.00 | 0.79 | 0.79 | 76 | 1013.4 |
| 20260503004745 | 5 | 218 | 0.0 | 0.0 | 0.00 | 0.79 | 0.79 | 75 | 1013.4 |
| 20260503004243 | 5 | 218 | 0.0 | 0.0 | 0.00 | 0.79 | 0.79 | 73 | 1013.6 |
| 20260503003740 | 5 | 218 | 0.0 | 0.0 | 0.00 | 0.79 | 0.79 | 72 | 1013.4 |
| 20260503003237 | 5 | 218 | 0.0 | 0.0 | 0.00 | 0.79 | 0.79 | 73 | 1013.4 |
| 20260503002734 | 5 | 218 | 0.0 | 0.0 | 0.00 | 0.79 | 0.79 | 71 | 1013.5 |
| 20260503002231 | 5 | 218 | 0.0 | 0.0 | 0.00 | 0.79 | 0.79 | 70 | 1013.3 |
| 20260503001727 | 5 | 218 | 0.0 | 0.0 | 0.00 | 0.79 | 0.79 | 70 | 1013.2 |
| 20260503001223 | 6 | 218 | 0.0 | 0.0 | 0.00 | 0.79 | 0.79 | 72 | 1013.3 |
| 20260503000722 | 6 | 218 | 0.0 | 0.0 | 0.00 | 0.79 | 0.79 | 70 | 1013.1 |
| 20260503000219 | 6 | 219 | 0.0 | 0.0 | 0.00 | 0.79 | 0.79 | 67 | 1013.3 |
| 20260502235715 | 6 | 220 | 0.0 | 0.0 | 0.00 | 0.79 | 0.79 | 63 | 1013.1 |
| 20260502235213 | 6 | 225 | 0.0 | 0.0 | 0.00 | 0.79 | 0.79 | 63 | 1013.1 |
| 20260502234709 | 6 | 214 | 0.0 | 0.0 | 0.00 | 0.79 | 0.79 | 62 | 1013.7 |
| 20260502234207 | 6 | 43 | 3.2 | 4.8 | 0.00 | 0.79 | 0.79 | 62 | 1013.6 |
| 20260502233702 | 6 | 229 | 0.0 | 0.0 | 0.00 | 0.79 | 0.79 | 62 | 1013.6 |
| 20260502233200 | 6 | 223 | 0.0 | 0.0 | 0.00 | 0.79 | 0.79 | 62 | 1013.4 |
| 20260502232655 | 6 | 232 | 0.0 | 0.0 | 0.00 | 0.79 | 0.79 | 61 | 1013.5 |
| 20260502232153 | 6 | 242 | 1.6 | 1.6 | 0.00 | 0.79 | 0.79 | 61 | 1013.4 |
| 20260502231649 | 6 | 235 | 0.0 | 1.6 | 0.00 | 0.79 | 0.79 | 60 | 1013.5 |
| 20260502231147 | 6 | 235 | 0.0 | 0.0 | 0.00 | 0.79 | 0.79 | 62 | 1013.3 |
| 20260502230645 | 6 | 214 | 0.0 | 0.0 | 0.00 | 0.79 | 0.79 | 62 | 1013.4 |
| 20260502230144 | 6 | 219 | 0.0 | 1.6 | 0.00 | 0.79 | 0.79 | 64 | 1013.5 |
| 20260502225639 | 6 | 211 | 0.0 | 1.6 | 0.00 | 0.79 | 0.79 | 61 | 1013.3 |
| 20260502225136 | 6 | 240 | 0.0 | 1.6 | 0.00 | 0.79 | 0.79 | 61 | 1013.2 |
| 20260502224632 | 6 | 275 | 1.6 | 3.2 | 0.00 | 0.79 | 0.79 | 60 | 1013.1 |
| 20260502224129 | 6 | 31 | 3.2 | 3.2 | 0.00 | 0.79 | 0.79 | 59 | 1013.1 |
| 20260502223627 | 7 | 241 | 1.6 | 1.6 | 0.00 | 0.79 | 0.79 | 60 | 1013.1 |
| 20260502223125 | 6 | 225 | 0.0 | 1.6 | 0.00 | 0.79 | 0.79 | 59 | 1013.0 |
| 20260502222622 | 6 | 298 | 3.2 | 3.2 | 0.00 | 0.79 | 0.79 | 59 | 1013.1 |
| 20260502222119 | 7 | 249 | 1.6 | 1.6 | 0.00 | 0.79 | 0.79 | 60 | 1013.3 |
| 20260502221614 | 7 | 281 | 3.2 | 4.8 | 0.00 | 0.79 | 0.79 | 57 | 1013.9 |
| 20260502221112 | 6 | 25 | 3.2 | 3.2 | 0.00 | 0.79 | 0.79 | 57 | 1014.2 |
| 20260502220608 | 7 | 309 | 1.6 | 1.6 | 0.00 | 0.79 | 0.79 | 59 | 1014.4 |
| 20260502220104 | 7 | 269 | 1.6 | 1.6 | 0.00 | 0.79 | 0.79 | 57 | 1014.1 |
| 20260502215601 | 7 | 208 | 1.6 | 3.2 | 0.00 | 0.79 | 0.79 | 58 | 1014.2 |
| 20260502215058 | 7 | 48 | 3.2 | 3.2 | 0.00 | 0.79 | 0.79 | 58 | 1014.3 |
| 20260502214555 | 7 | 209 | 1.6 | 3.2 | 0.00 | 0.79 | 0.79 | 58 | 1014.1 |
| 20260502214053 | 7 | 356 | 4.8 | 4.8 | 0.00 | 0.79 | 0.79 | 59 | 1014.2 |
| 20260502213549 | 7 | 357 | 4.8 | 8.0 | 0.00 | 0.79 | 0.79 | 61 | 1014.2 |
| 20260502213047 | 7 | 231 | 0.0 | 0.0 | 0.00 | 0.79 | 0.79 | 60 | 1014.1 |
| 20260502212546 | 7 | 219 | 0.0 | 0.0 | 0.00 | 0.79 | 0.79 | 59 | 1014.0 |
| 20260502212043 | 7 | 253 | 1.6 | 1.6 | 0.00 | 0.79 | 0.79 | 62 | 1014.1 |